Location: Bruch
(44.2051°N, 0.4120°E)
Time: 06:07:00
(UTC+00:00)

Cosmos 2366 rocket - Pass Details

Date: 29 November 2020
Orbit: 955 x 997 km, 82.9° (Epoch: 27 January)

Event Time Altitude Azimuth Distance (km) Brightness Sun altitude
Rises 06:29:27 0° 178° (S) 3,698 7.4 -7.6°
Reaches altitude 10° 06:31:59 10° 176° (S) 2,750 6.8 -7.2°
Maximum altitude 06:38:15 69° 94° (E) 1,054 4.5 -6.2°
Drops below altitude 10° 06:44:30 10° 13° (NNE) 2,745 6.2 -5.2°
Sets 06:47:01 0° 11° (N) 3,691 6.9 -4.8°
